Regional Weather Roundup
Issued by NWS Wakefield, VA

Home | Current Version | Previous Version | Text Only | Print | Product List | Glossary Off
Versions: 1 2 3 4 5 6 7 8 9 10 11 12 13 14 15 16 17 18 19 20 21 22 23 24 25 26 27 28 29 30 31 32 33 34 35 36 37 38 39 40 41 42 43 44 45 46 47 48 49 50

000
ASUS41 KAKQ 011710
RWRAKQ

REGIONAL WEATHER ROUNDUP
NATIONAL WEATHER SERVICE WAKEFIELD VA
1200 PM EST SUN MAR 01 2015

Note: "fair" indicates few or no clouds below 12,000 feet with no
significant weather and/or obstructions to visibility. * = Denotes
station may not report precipitation (e.g., rain,snow,etc.),
thunder or fog.

VAZ042-051-052>054-056-011800-
NORTHERN VIRGINIA

CITY           SKY/WX    TMP DP  RH WIND       PRES   REMARKS
WASH NATIONAL  FRZ RAIN  30  24  78 S6        30.59F
DULLES         FRZ RAIN  26  22  84 S7        30.56F
FORT BELVOIR   FRZ RAIN  28  25  86 W3        30.58F
QUANTICO       FRZ RAIN  28  23  81 CALM      30.60F
FREDERICKSBRG* MIX PCPN  29  29 100 CALM      30.58F
STAFFORD*      MIX PCPN  28  32 100 NW5       30.61F
WARRENTON      MIX PCPN  29  29  97 S5        30.55F
CULPEPER*      MIX PCPN  28  27  93 SW5       30.57S
MANASSAS*      CLOUDY    28  27  93 S5        30.58F
LEESBURG*      MIX PCPN  28  28 100 S10       30.55F WCI  19
WINCHESTER     MIX PCPN  30  23  74 S7        30.48F
FRONT ROYAL*   CLOUDY    28  23  80 CALM      30.48F
LURAY*         DRIZZLE   34  27  75 CALM      30.47F
$$

VAZ048-049-060>072-079>083-011800-
CENTRAL AND SOUTH CENTRAL VIRGINIA

CITY           SKY/WX    TMP DP  RH WIND       PRES   REMARKS
RICHMOND       FRZ DRZL  28  25  86 CALM      30.55F FOG
CHESTERFIELD*  CLOUDY    28  16  59 CALM      30.56F
PETERSBURG*    CLOUDY    30  28  91 N3        30.56F FOG
HANOVER        FRZ RAIN  28  25  88 CALM      30.57F FOG
TAPPAHANNOCK*  MIX PCPN  29  24  82 CALM      30.56F
QUINTON*       CLOUDY    28  25  90 E3        30.56F
CHARLOTTSVILLE CLOUDY    28  19  69 CALM      30.54F
GORDONSVILLE*  CLOUDY    28  22  78 CALM      30.54F
ORANGE*        CLOUDY    30  27  86 CALM      30.57S
LOUISA*        MIX PCPN  28  25  86 W3        30.54F
BUMPASS*       CLOUDY    27  24  87 CALM      30.56F
FARMVILLE*     CLOUDY    35  27  74 CALM      30.54F
CREWE*         CLOUDY    29  26  89 CALM      30.53F
FORT PICKETT*  CLOUDY    29  28  95 CALM      30.53F
CHASE CITY*    CLOUDY    32  32 100 NW3       30.54F
CLARKSVILLE*   CLOUDY    30  30 100 CALM      30.53F
SOUTH HILL*    CLOUDY    29  28  95 CALM      30.58F
LAWRENCEVILLE* CLOUDY    29  28  93 NE5       30.53F
EMPORIA*       CLOUDY    30  28  93 N5        30.55F
$$

VAZ088>098-011800-
SOUTHEAST VIRGINIA

CITY           SKY/WX    TMP DP  RH WIND       PRES   REMARKS
NORFOLK        CLOUDY    33  27  78 N9        30.55F
VIRGINIA BEACH LGT RAIN  37  29  72 N9        30.54F
NORFOLK NAVAL  CLOUDY    34  27  75 N8        30.55F
WEST POINT*    CLOUDY    32  26  80 CALM      30.59F
SALUDA*        CLOUDY    29  26  89 NE3       30.56F
NEWPORT NEWS   CLOUDY    34  27  75 E5        30.55F
LANGLEY AFB    DRIZZLE   32  27  80 N5        30.55F
FORT EUSTIS    CLOUDY    31  31  96 NE2       30.53F
WILLIAMSBURG*  CLOUDY    34  30  86 CALM      30.57F
HR EXEC AP*    CLOUDY    36  27  69 N3        30.57F
FRANKLIN*      DRIZZLE   32  30  92 NE5       30.55F
WAKEFIELD      FRZ RAIN  31  27  85 N3        30.56F
$$

VAZ020-022-025-037-045-011800-
WEST CENTRAL AND SOUTHWEST VIRGINIA

CITY           SKY/WX    TMP DP  RH WIND       PRES   REMARKS
STAUNTON*      MIX PCPN  31  23  72 S5        30.48F
WAYNESBORO*    CLOUDY    30  22  72 CALM      30.45F
HOT SPRINGS VA CLOUDY    40  38  95 SW16G25   30.33F
LYNCHBURG      FRZ RAIN  30  16  56 CALM      30.53F
DANVILLE       FRZ RAIN  31  28  89 CALM      30.54F FOG
SOUTH BOSTON*  CLOUDY    30  28  92 CALM      30.55F
MARTINSVILLE   DRIZZLE   32  27  83 CALM      30.55F
ROANOKE        CLOUDY    30  15  53 CALM      30.52F
BLACKSBURG     CLOUDY    33  21  62 CALM      30.47F
DUBLIN*        PTSUNNY   37  24  59 SE5       30.44F
MARION*        PTSUNNY   40  27  58 NE7       30.42F
HILLSVILLE*    CLOUDY    43  38  83 S9        30.42F
RICHLANDS*     CLOUDY    47  30  50 NW3       30.37S
WISE*          CLOUDY    50  32  50 S7        30.36F
ABINGDON*      CLOUDY    46  31  56 E3        30.39F
$$

MDZ021>025-VAZ099-100-011800-
SOUTHERN MARYLAND AND THE DELMARVA PENINSULA

CITY           SKY/WX    TMP DP  RH WIND       PRES   REMARKS
PATUXENT RIVER FRZ RAIN  26  21  81 E6        30.57F FOG
BAY BRIDGE APT LGT SNOW  27  23  86 S5        30.58F
LEONARDTOWN    CLOUDY    28  25  86 CALM      30.58F
DOVER          LGTSLEET  26  26  99 SE7       30.57F FOG
GEORGETOWN     FRZ RAIN  28  24  85 E5        30.56F FOG
EASTON         LGT SNOW  28  28 100 CALM      30.61F
CAMBRIDGE      CLOUDY    30  25  80 E3        30.56F
SALISBURY      FRZ RAIN  31  26  82 NE5       30.56F
OCEAN CITY     FRZ RAIN  30  27  88 NE7       30.57F FOG
WALLOPS ISLAND FRZ RAIN  31  29  92 NE7       30.56F FOG
ACCOMACK*      MIX PCPN  32  28  86 N5        30.56F
$$

NCZ012>017-030>032-011800-
NORTH CENTRAL AND EASTERN NORTH CAROLINA

CITY           SKY/WX    TMP DP  RH WIND       PRES   REMARKS
ROANOKE RAPIDS LGT RAIN  32  32 100 CALM      30.52F
RALEIGH        LGT RAIN  33  30  88 N3        30.53F VSB 1/2
ELIZABETH CITY LGT RAIN  39  35  86 NW6       30.54F
AHOSKIE*       DRIZZLE   32  30  94 CALM      30.54F
EDENTON*       DRIZZLE   36  35  94 N3        30.54F
CURRITUCK*     DRIZZLE   39  35  84 N6        30.54F
KILL DEVIL HLS DRIZZLE   45  45 100 E3        30.51F
MANTEO         DRIZZLE   48  46  93 CALM      30.52F
CAPE HATTERAS  CLOUDY    53  45  74 SE9       30.52F
TARBORO*       CLOUDY    34  32  94 NE5       30.54F
GOLDSBORO      MIX PCPN  35  35  99 CALM      30.49F FOG
WASHINGTON     PTSUNNY   38  36  91 N5        30.53F
GREENVILLE     CLOUDY    36  34  93 N7        30.53F
NEW BERN       CLOUDY    48  38  68 N5        30.50F
WILMINGTON     CLOUDY    56  47  71 E3        30.47F
$$

VAZ048-011800-
ELSEWHERE

CITY           SKY/WX    TMP DP  RH WIND       PRES   REMARKS
HARRISBURG PA  LGT SNOW  26  21  81 SE5       30.53F
BALTIMORE      FRZ RAIN  27  23  85 S7        30.55F FOG
ANNAPOLIS      FRZ RAIN  26  23  88 S6        30.57F FOG
ANDREWS AFB    FRZ RAIN  28  25  86 S2        30.55F
PHILADELPHIA   LGT SNOW  26  21  81 S6        30.59F
HENDERSON NC   LGT SNOW  32  30  94 CALM      30.52F
GREENSBORO     FRZ RAIN  31  29  92 NE6       30.49F FOG
ROCKY MOUNT    CLOUDY    33  32  96 VRB3      30.52F FOG
$$

VAZ100-011800-
MARINE

STATION/POSITION TIME  TEMP    WIND        PRES    WAVE   SWELL
                       AIR SEA DIR/SP/G            HT/PER HT/PER
                 (UTC) (F)     (DEG/KT/KT) (MB)    (FT/S) (FT/S)
BRANDYWINE LGT   1700   26 30  110/  3/  4 1035.8F
CAPE MAY NJ      1700      32   80/  3/  4 1035.3F
LEWES DE         1700   27 30   60/  3/  4 1035.6F
15NM E FENWICK I 1700   31 34              1035.3F   2/10
OCEAN-CITY-INLET 1700   29 31   20/  4/  6 1035.2F
WACHAPREAGUE VA  1700   31 32   10/  4/  6 1034.7S
THOMAS POINT MD  1700   25 31  160/  5/  6 1036.1F
COVE POINT MD    1700   24     160/  3/  4 1035.0F
SOLOMONS ISLAND  1700      32                N/A
BISHOPS HEAD MD  1700   27 30   60/  4/  6 1034.4F
CAMBRIDGE MD     1700      32   80/  4/  6 1034.9F
LEWISETTA VA     1700   27 32              1034.8F
RAPPAHANNOCK LGT 1700           20/ 11/ 12 1035.0F
STINGRAY PT      1700   29      40/  8/ 10   N/A
YORK RVR RNG VA  1700           30/  7/  9 1033.8F
YORKTOWN VA      1700      33   50/  4/  5 1034.3F
DOMINION TERM VA 1700   32      50/  3/  5 1034.8F
KIPTOPEKE VA     1700      37   40/  5/ 10   N/A
CHES BAY BRIDGE  1700   31 33  330/  7/  8 1034.5F
CAPE HENRY VA    1700   32     360/  6/  7 1033.4F
CHESAPEAKE LGHT  1600   35      20/ 16/ 17 1035.1F
WILLOUBY STN VA  1700   31      30/  6/  7 1035.1F
S CRANEY ISL VA  1700           40/  7/  9 1034.7F
CAPE HENRY BUOY  1700      35                N/A     3/ 4
1ST LANDING BUOY 1700   32     340/  6/  6 1034.4F
OFFSHORE WE BUOY 1700      37                N/A     3/ 8   2/ 8
64NM E OF VA BCH 1700   58 61  170/ 19/ 21 1033.2F   4/ 5   2/10
DUCK PIER NC     1700      34   30/  6/  7 1032.6F
44100 DUCK FRF   1700      36                N/A     4/10
44056 DUCK FRF   1700      34                N/A     3/ 8
OREGON INLET NC  1700   47 38  160/  4/  5 1034.2F
HATTERAS NC      1700   50 39  140/  7/ 10 1033.9R
CAPE LOOKOUT NC  1600   55      90/  6/  8 1032.7F
$$



USA.gov is the U.S. government's official web portal to all federal, state and local government web resources and services.